Flag for U.S.A. Weather past 2 weeks in San Bernardino, California, U.S.A.

Now
61 °F

Mostly cloudy.


Feels Like: 61 °F
Forecast: 48 / 56 °F
Wind: 13 mph from Southwest

Location: Riverside Municipal Airport

Current Time: Feb 28, 2015 at 11:50:54 AM

Latest Report: Feb 28, 2015 at 10:53 AM


Visibility: 10 mi

Pressure: 29.84 "Hg

Humidity: 50%

Dew point: 42 °F

Location of San BernardinoLocation

Historic Weather in San Bernardino — Graph

°F

San Bernardino temperature yesterday

Maximum temperature yesterday: 62 °F (at 11:00 AM)
Minimum temperature yesterday: 49 °F (at 3:53 AM)
Average temperature yesterday: 56 °F

Past Weeks' High & Low Weather Summary

 TemperatureHumidityPressure
High86 °F (Feb 13, 1:53 PM)97% (Feb 18, 6:53 AM)30.20 "Hg (Feb 18, 6:53 AM)
Low41 °F (Feb 24, 5:53 AM)8% (Feb 13, 12:53 PM)29.72 "Hg (Feb 27, 5:53 PM)
Average60 °F61%29.97 "Hg
* Reported Feb 13 10:53 AM — Feb 28 10:53 AM, San Bernardino, Weather by CustomWeather, © 2015

Note: Actual official high and low records may vary slightly from our data, if they occured in-between our weather recording intervals... More about our weather records

Advertising

San Bernardino weather history for previous 24 hours

 ConditionsComfort  
Time TempWeatherWind HumidityBarometerVisibility
10:53 AM
Sat, Feb 28
61 °FMostly cloudy.13 mph50%29.84 "Hg10 mi
9:53 AM59 °FPartly sunny.7 mph54%29.83 "Hg10 mi
8:53 AM56 °FScattered clouds.6 mph58%29.83 "Hg10 mi
7:53 AM54 °FPartly sunny.No wind64%29.80 "Hg10 mi
6:53 AM51 °FPartly sunny.No wind80%29.78 "Hg10 mi
5:53 AM52 °FPassing clouds.6 mph75%29.76 "Hg10 mi
4:53 AM52 °FPassing clouds.No wind80%29.75 "Hg10 mi
3:53 AM53 °FClear.9 mph77%29.73 "Hg10 mi
2:53 AM54 °FPassing clouds.8 mph80%29.73 "Hg10 mi
1:53 AM54 °FPartly cloudy.7 mph83%29.75 "Hg10 mi
12:53 AM54 °FPassing clouds.3 mph80%29.74 "Hg10 mi
11:53 PM
Fri, Feb 27
56 °FPassing clouds.5 mph75%29.73 "Hg10 mi
10:53 PM57 °FMostly cloudy.7 mph74%29.74 "Hg10 mi
9:53 PM58 °FMostly cloudy.9 mph75%29.74 "Hg10 mi
8:53 PM58 °FOvercast.7 mph78%29.73 "Hg10 mi
7:53 PM58 °FMostly cloudy.9 mph78%29.72 "Hg10 mi
6:53 PM59 °FOvercast.3 mph69%29.72 "Hg10 mi
5:53 PM60 °FMostly cloudy.6 mph69%29.72 "Hg10 mi
4:53 PM61 °FMostly cloudy.6 mph67%29.72 "Hg10 mi
3:53 PM62 °FMostly cloudy.7 mph62%29.73 "Hg10 mi
2:53 PM62 °FMore clouds than sun.3 mph58%29.74 "Hg10 mi
1:53 PM61 °FMostly cloudy.6 mph60%29.75 "Hg10 mi
12:53 PM62 °FOvercast.7 mph56%29.77 "Hg10 mi
11:53 AM61 °FOvercast.No wind56%29.79 "Hg10 mi
11:00 AM62 °FPartly sunny.6 mph54%29.86 "Hg10 mi
Weather by CustomWeather, © 2015

See weather overviewHow to use our weather pages